DW0156 Weather Reports


Display with metric or nautical units.
time (UTC)temp
F
wind
direction
speed
MPH
gust
MPH
rain 1hr
in
rain 24hr
in
rain mn
in
humidity
%
barometer
mb
20260510151858 57 263 2.0 8.0 0.00 0.00 0.00 82 1029.8
20260510151354 57 263 2.0 8.0 0.00 0.00 0.00 82 1029.7
20260510150900 57 263 3.0 12.0 0.00 0.00 0.00 82 1029.7
20260510150345 57 263 3.0 12.0 0.00 0.00 0.00 82 1029.7
20260510145846 57 263 4.0 12.0 0.00 0.00 0.00 81 1029.7
20260510145346 57 263 3.0 12.0 0.00 0.00 0.00 81 1029.7
20260510144828 57 263 2.0 8.0 0.00 0.00 0.00 81 1029.7
20260510143725 57 263 3.0 13.0 0.00 0.00 0.00 81 1029.7
20260510143226 57 263 3.0 13.0 0.00 0.00 0.00 81 1029.7
20260510142729 57 263 3.0 13.0 0.00 0.00 0.00 81 1029.7
20260510142218 57 263 3.0 11.0 0.00 0.00 0.00 81 1029.7
20260510141046 57 263 4.0 11.0 0.00 0.00 0.00 81 1029.9
20260510140532 57 263 4.0 11.0 0.00 0.00 0.00 81 1029.9
20260510140036 57 263 4.0 14.0 0.00 0.00 0.00 81 1029.9
20260510135525 57 263 3.0 14.0 0.00 0.00 0.00 81 1030.0
20260510133705 58 263 4.0 13.0 0.00 0.00 0.00 81 1030.0
20260510132536 57 263 4.0 12.0 0.00 0.00 0.00 81 1030.0
20260510130801 57 263 2.0 7.0 0.00 0.00 0.00 81 1030.1
20260510125639 57 263 3.0 9.0 0.00 0.00 0.00 81 1030.1
20260510124505 57 263 4.0 10.0 0.00 0.00 0.00 81 1030.1
20260510122704 57 263 2.0 10.0 0.00 0.00 0.00 82 1030.2
20260510122204 57 263 1.0 9.0 0.00 0.00 0.00 82 1030.2
20260510121106 57 263 3.0 12.0 0.00 0.00 0.00 82 1030.1
20260510120559 58 263 3.0 12.0 0.00 0.00 0.00 81 1030.1
20260510120041 58 263 3.0 12.0 0.00 0.00 0.00 82 1030.1
20260510115528 58 263 4.0 12.0 0.00 0.00 0.00 82 1030.0
20260510115034 57 263 4.0 11.0 0.00 0.00 0.00 82 1030.0
20260510114531 57 263 3.0 11.0 0.00 0.00 0.00 82 1030.0
20260510114031 57 263 3.0 8.0 0.00 0.00 0.00 82 1030.0
20260510113531 57 263 3.0 8.0 0.00 0.00 0.00 82 1030.0
20260510113034 57 263 1.0 6.0 0.00 0.00 0.00 82 1030.0
20260510112527 57 263 0.0 6.0 0.00 0.00 0.00 82 1029.9
20260510111353 57 263 1.0 9.0 0.00 0.00 0.00 82 1029.9
20260510110216 57 263 1.0 5.0 0.00 0.00 0.00 81 1029.9
20260510105713 57 263 0.0 5.0 0.00 0.00 0.00 81 1030.0
20260510105154 58 263 0.0 5.0 0.00 0.00 0.00 80 1030.0
20260510104703 58 263 0.0 0.0 0.00 0.00 0.00 80 1030.0
20260510104155 58 263 0.0 0.0 0.00 0.00 0.00 80 1030.1
20260510103651 58 263 0.0 0.0 0.00 0.00 0.00 80 1030.1
20260510101920 59 263 0.0 2.0 0.00 0.00 0.00 79 1030.0
20260510101411 59 263 0.0 0.0 0.00 0.00 0.00 79 1030.0
20260510100853 59 263 0.0 2.0 0.00 0.00 0.00 79 1030.1
20260510100334 59 263 0.0 1.0 0.00 0.00 0.00 79 1030.1
20260510095825 59 263 0.0 0.0 0.00 0.00 0.00 79 1029.9
20260510095307 59 263 0.0 0.0 0.00 0.00 0.00 78 1029.9
20260510094756 59 263 0.0 0.0 0.00 0.00 0.00 78 1029.9
20260510094302 59 263 0.0 0.0 0.00 0.00 0.00 78 1029.7
20260510093743 59 263 0.0 0.0 0.00 0.00 0.00 77 1029.7
20260510092614 59 263 0.0 1.0 0.00 0.00 0.00 76 1029.6
20260510092112 59 263 0.0 1.0 0.00 0.00 0.00 75 1029.6
20260510091556 59 263 0.0 1.0 0.00 0.00 0.00 75 1029.6
20260510090409 59 263 0.0 0.0 0.00 0.00 0.00 74 1029.6
20260510085901 59 263 0.0 0.0 0.00 0.00 0.00 73 1029.5
20260510085356 59 263 0.0 0.0 0.00 0.00 0.00 73 1029.5
20260510084904 59 263 0.0 1.0 0.00 0.00 0.00 73 1029.5
20260510084411 59 263 0.0 1.0 0.00 0.00 0.00 73 1029.5
20260510083906 59 263 0.0 1.0 0.00 0.00 0.00 72 1029.3
20260510083412 59 263 0.0 0.0 0.00 0.00 0.00 72 1029.3
20260510082853 59 263 0.0 0.0 0.00 0.00 0.00 72 1029.1
20260510082348 60 263 0.0 0.0 0.00 0.00 0.00 72 1029.1
20260510081858 60 263 0.0 0.0 0.00 0.00 0.00 71 1029.1
20260510081350 60 263 0.0 0.0 0.00 0.00 0.00 71 1029.0
20260510080229 60 263 0.0 0.0 0.00 0.00 0.00 70 1029.0
20260510075102 60 263 0.0 0.0 0.00 0.00 0.00 70 1028.9
20260510074610 61 263 0.0 1.0 0.00 0.00 0.00 69 1028.9
20260510074105 61 263 0.0 0.0 0.00 0.00 0.00 69 1028.7
20260510073613 61 263 0.0 0.0 0.00 0.00 0.00 69 1028.7
20260510073113 61 263 0.0 0.0 0.00 0.00 0.00 68 1028.7
20260510072614 61 263 1.0 3.0 0.00 0.00 0.00 68 1028.7
20260510072104 61 263 2.0 3.0 0.00 0.00 0.00 68 1028.7
20260510070940 62 263 1.0 5.0 0.00 0.00 0.00 67 1028.8
20260510070446 62 263 2.0 6.0 0.00 0.00 0.00 67 1028.8
20260510065321 62 263 3.0 6.0 0.00 0.00 0.00 66 1028.6
20260510064802 63 263 2.0 6.0 0.00 0.00 0.00 66 1028.6
20260510064311 63 263 2.0 5.0 0.00 0.00 0.00 65 1028.5
20260510063813 63 263 2.0 4.0 0.00 0.00 0.00 65 1028.5
20260510062032 63 263 2.0 5.0 0.00 0.00 0.00 64 1028.5
20260510061520 63 263 2.0 5.0 0.00 0.00 0.00 64 1028.5
20260510061027 64 263 3.0 6.0 0.00 0.00 0.00 63 1028.5
20260510055901 64 263 2.0 8.0 0.00 0.00 0.00 62 1028.4
20260510055403 64 263 2.0 8.0 0.00 0.00 0.00 61 1028.4
20260510054847 65 263 3.0 8.0 0.00 0.00 0.00 61 1028.4
20260510053728 65 263 2.0 7.0 0.00 0.00 0.00 61 1028.4
20260510053228 65 263 3.0 7.0 0.00 0.00 0.00 61 1028.4
20260510052716 65 263 3.0 7.0 0.00 0.00 0.00 61 1028.4
20260510052213 65 263 3.0 6.0 0.00 0.00 0.00 62 1028.4
20260510051654 64 263 2.0 6.0 0.00 0.00 0.00 61 1028.4
20260510050516 64 263 1.0 5.0 0.00 0.00 0.00 62 1028.4
20260510050006 64 263 2.0 5.0 0.00 0.00 0.00 62 1028.4
20260510045456 64 263 2.0 5.0 0.00 0.00 0.00 61 1028.5
20260510044338 65 263 0.0 2.0 0.00 0.00 0.00 62 1028.5
20260510043835 65 263 0.0 4.0 0.00 0.00 0.00 62 1028.5
20260510043335 65 263 0.0 4.0 0.00 0.00 0.00 61 1028.5
20260510042819 65 263 2.0 6.0 0.00 0.00 0.00 60 1028.5
20260510041633 65 263 1.0 6.0 0.00 0.00 0.00 61 1028.5
20260510041127 65 263 0.0 4.0 0.00 0.00 0.00 61 1028.5
20260510040628 65 263 0.0 2.0 0.00 0.00 0.00 61 1028.5
20260510040136 65 263 0.0 0.0 0.00 0.00 0.00 61 1028.5
20260510035632 64 263 1.0 4.0 0.00 0.00 0.00 61 1028.6
20260510035130 65 263 0.0 3.0 0.00 0.00 0.00 61 1028.6
20260510034631 65 263 0.0 1.0 0.00 0.00 0.00 62 1028.6
20260510034123 64 263 0.0 3.0 0.00 0.00 0.00 61 1028.9
20260510033618 64 263 0.0 3.0 0.00 0.00 0.00 61 1028.9
20260510032456 64 263 2.0 4.0 0.00 0.00 0.00 61 1029.0
20260510032006 64 263 1.0 4.0 0.00 0.00 0.00 61 1029.0
20260510031503 65 263 0.0 3.0 0.00 0.00 0.00 61 1029.0
20260510030956 65 263 0.0 2.0 0.00 0.00 0.00 60 1029.1
20260510030447 65 263 0.0 3.0 0.00 0.00 0.00 61 1029.1
20260510025323 65 263 0.0 3.0 0.00 0.00 0.00 61 1029.4
20260510024833 65 263 0.0 3.0 0.00 0.00 0.00 60 1029.4
20260510024328 65 263 0.0 4.0 0.00 0.00 0.00 61 1029.5
20260510023828 65 263 0.0 4.0 0.00 0.00 0.00 61 1029.5
20260510023317 65 263 0.0 4.0 0.00 0.00 0.00 61 1029.5
20260510022812 65 263 0.0 4.0 0.00 0.00 0.00 61 1029.8
20260510022317 64 263 0.0 2.0 0.00 0.00 0.00 62 1029.8
20260510021807 64 263 0.0 2.0 0.00 0.00 0.00 62 1029.8
20260510021309 64 263 0.0 0.0 0.00 0.00 0.00 62 1030.1
20260510020753 63 263 0.0 3.0 0.00 0.00 0.00 63 1030.1
20260510020253 63 263 0.0 3.0 0.00 0.00 0.00 64 1030.1
20260510015749 63 263 0.0 3.0 0.00 0.00 0.00 63 1030.2
20260510015240 63 263 0.0 2.0 0.00 0.00 0.00 64 1030.2
20260510014740 63 263 0.0 0.0 0.00 0.00 0.00 64 1030.2
20260510014234 63 263 0.0 2.0 0.00 0.00 0.00 65 1030.2
20260510013737 62 263 0.0 2.0 0.00 0.00 0.00 65 1030.2
20260510013230 62 263 0.0 3.0 0.00 0.00 0.00 65 1030.2
20260510012716 62 263 0.0 3.0 0.00 0.00 0.00 65 1030.2
20260510012205 62 263 0.0 3.0 0.00 0.00 0.00 65 1030.2
20260510011710 62 263 0.0 2.0 0.00 0.00 0.00 66 1030.2
20260510011212 62 263 0.0 2.0 0.00 0.00 0.00 67 1030.3
20260510010701 62 263 0.0 2.0 0.00 0.00 0.00 67 1030.3
20260510010156 62 263 0.0 2.0 0.00 0.00 0.00 68 1030.3
20260510005659 61 263 0.0 0.0 0.00 0.00 0.00 69 1030.2
20260510003915 61 263 0.0 3.0 0.00 0.00 0.00 71 1030.3
20260510002753 60 263 1.0 3.0 0.00 0.00 0.00 71 1030.3
20260510002243 60 263 0.0 3.0 0.00 0.00 0.00 71 1030.3
20260510001729 60 263 0.0 3.0 0.00 0.00 0.00 72 1030.3
20260510001222 60 263 0.0 0.0 0.00 0.00 0.00 72 1030.4
20260510000705 60 263 1.0 3.0 0.00 0.00 0.00 72 1030.4
20260510000200 60 263 1.0 6.0 0.00 0.00 0.00 72 1030.4
20260509235656 60 263 2.0 7.0 0.00 0.00 0.00 72 1030.4
20260509235200 59 263 2.0 7.0 0.00 0.00 0.00 72 1030.4
20260509234659 59 263 2.0 7.0 0.00 0.00 0.00 73 1030.4
20260509234206 59 263 2.0 7.0 0.00 0.00 0.00 73 1030.4
20260509233650 59 263 2.0 6.0 0.00 0.00 0.00 75 1030.4
20260509233134 59 263 2.0 8.0 0.00 0.00 0.00 75 1030.4
20260509232614 59 263 2.0 8.0 0.00 0.00 0.00 76 1030.3
20260509232111 58 263 3.0 9.0 0.00 0.00 0.00 77 1030.3
20260509231617 58 263 3.0 9.0 0.00 0.00 0.00 77 1030.3
20260509231125 58 263 2.0 9.0 0.00 0.00 0.00 79 1030.1
20260509230613 58 263 3.0 9.0 0.00 0.00 0.00 80 1030.1
20260509230120 57 263 2.0 5.0 0.00 0.00 0.00 82 1030.1
20260509225626 57 263 2.0 5.0 0.00 0.00 0.00 84 1030.1
20260509225109 57 263 3.0 5.0 0.00 0.00 0.00 85 1030.1
20260509224607 56 263 1.0 5.0 0.00 0.00 0.00 86 1030.1
20260509224115 56 263 1.0 5.0 0.00 0.00 0.00 87 1030.0
20260509223612 56 263 1.0 5.0 0.00 0.00 0.00 88 1030.0
20260509223119 56 263 1.0 5.0 0.00 0.00 0.00 89 1030.0
20260509222623 55 263 1.0 5.0 0.00 0.00 0.00 89 1029.6
20260509222108 55 263 1.0 4.0 0.00 0.00 0.00 90 1029.6
20260509221615 55 263 0.0 3.0 0.00 0.00 0.00 90 1029.6
20260509221108 54 263 0.0 0.0 0.00 0.00 0.00 91 1029.6
20260509220606 54 263 0.0 0.0 0.00 0.00 0.00 91 1029.6
20260509220114 54 263 0.0 0.0 0.00 0.00 0.00 91 1029.6
20260509215605 54 263 0.0 2.0 0.00 0.00 0.00 91 1029.4
20260509215051 54 263 0.0 1.0 0.00 0.00 0.00 91 1029.4
20260509214544 53 263 0.0 1.0 0.00 0.00 0.00 91 1029.4
20260509213429 53 263 0.0 0.0 0.00 0.00 0.00 91 1029.1
20260509212257 53 263 0.0 1.0 0.00 0.00 0.00 91 1029.1
20260509211758 53 263 0.0 0.0 0.00 0.00 0.00 91 1029.1
20260509211254 52 263 0.0 0.0 0.00 0.00 0.00 91 1029.1
20260509210143 52 263 0.0 0.0 0.00 0.00 0.00 91 1029.1
20260509205628 52 263 0.0 0.0 0.00 0.00 0.00 91 1029.0
20260509205114 52 263 0.0 0.0 0.00 0.00 0.00 91 1029.0
20260509204606 52 263 0.0 0.0 0.00 0.00 0.00 91 1029.0
20260509204109 52 263 0.0 0.0 0.00 0.00 0.00 91 1028.8
20260509203614 52 263 0.0 0.0 0.00 0.00 0.00 91 1028.8
20260509203116 52 263 0.0 0.0 0.00 0.00 0.00 91 1028.8
20260509202603 53 263 0.0 0.0 0.00 0.00 0.00 91 1028.6
20260509202047 53 263 0.0 0.0 0.00 0.00 0.00 91 1028.6
20260509201544 53 263 0.0 1.0 0.00 0.00 0.00 91 1028.6
20260509201035 53 263 0.0 0.0 0.00 0.00 0.00 91 1028.5
20260509200523 53 263 0.0 0.0 0.00 0.00 0.00 91 1028.5
20260509200007 53 263 0.0 0.0 0.00 0.00 0.00 91 1028.5
20260509195004 53 263 0.0 0.0 0.00 0.00 0.00 91 1028.5
20260509194508 53 263 0.0 0.0 0.00 0.00 0.00 91 1028.5
20260509194013 53 263 0.0 0.0 0.00 0.00 0.00 91 1028.5
20260509193522 53 263 0.0 0.0 0.00 0.00 0.00 90 1028.5
20260509193006 53 263 0.0 0.0 0.00 0.00 0.00 90 1028.5
20260509192509 53 263 0.0 0.0 0.00 0.00 0.00 90 1028.4
20260509192018 53 263 0.0 0.0 0.00 0.00 0.00 91 1028.4
20260509191510 53 263 0.0 0.0 0.00 0.00 0.00 91 1028.4
20260509190951 53 263 0.0 0.0 0.00 0.00 0.00 91 1028.2
20260509190433 53 263 0.0 0.0 0.00 0.00 0.00 90 1028.2
20260509185923 53 263 0.0 0.0 0.00 0.00 0.00 90 1028.2
20260509185427 54 263 0.0 0.0 0.00 0.00 0.00 90 1028.1
20260509183645 54 263 0.0 0.0 0.00 0.00 0.00 90 1028.1
20260509183150 54 263 0.0 0.0 0.00 0.00 0.00 90 1028.1
20260509182631 54 263 0.0 0.0 0.00 0.00 0.00 90 1028.0
20260509182120 54 263 0.0 0.0 0.00 0.00 0.00 90 1028.0
20260509181628 55 263 0.0 0.0 0.00 0.00 0.00 91 1028.0
20260509181133 54 263 0.0 0.0 0.00 0.00 0.00 91 1028.0
20260509180616 54 263 0.0 2.0 0.00 0.00 0.00 91 1028.0
20260509175547 54 263 0.0 2.0 0.00 0.00 0.00 91 1028.0
20260509175032 54 263 0.0 0.0 0.00 0.00 0.00 91 1028.0
20260509173319 54 263 0.0 0.0 0.00 0.00 0.00 90 1028.0
20260509172158 53 263 0.0 2.0 0.00 0.00 0.00 90 1028.0
20260509171646 53 263 0.0 0.0 0.00 0.00 0.00 90 1028.0
20260509171138 53 263 0.0 0.0 0.00 0.00 0.00 90 1028.1
20260509170644 53 263 0.0 0.0 0.00 0.00 0.00 90 1028.1
20260509170131 53 263 0.0 0.0 0.00 0.00 0.00 90 1028.1
20260509165617 53 263 0.0 0.0 0.00 0.00 0.00 90 1028.3
20260509165119 53 263 0.0 0.0 0.00 0.00 0.00 90 1028.3
20260509164603 53 263 0.0 0.0 0.00 0.00 0.00 89 1028.3
20260509164044 53 263 0.0 0.0 0.00 0.00 0.00 89 1028.4
20260509163549 53 263 0.0 0.0 0.00 0.00 0.00 89 1028.4
20260509163037 53 263 0.0 0.0 0.00 0.00 0.00 89 1028.4
20260509162519 53 263 0.0 0.0 0.00 0.00 0.00 89 1028.5
20260509162018 53 263 0.0 0.0 0.00 0.00 0.00 89 1028.5
20260509161500 53 263 0.0 0.0 0.00 0.00 0.00 89 1028.5
20260509160954 53 263 0.0 0.0 0.00 0.00 0.00 89 1028.5
20260509160440 53 263 0.0 0.0 0.00 0.00 0.00 88 1028.5
20260509155939 53 263 0.0 0.0 0.00 0.00 0.00 88 1028.5
20260509155425 53 263 0.0 0.0 0.00 0.00 0.00 88 1028.5
20260509154919 53 263 0.0 0.0 0.00 0.00 0.00 88 1028.5
20260509153759 53 263 0.0 0.0 0.00 0.00 0.00 88 1028.5
20260509153259 53 263 0.0 0.0 0.00 0.00 0.00 88 1028.5
20260509152800 53 263 0.0 0.0 0.00 0.00 0.00 88 1028.5
20260509152254 53 263 0.0 0.0 0.00 0.00 0.00 88 1028.5